Regional Weather Roundup
Issued by NWS Pendleton, OR

Home | Current Version | Previous Version | Text Only | Print | Product List | Glossary On
Versions: 1 2 3 4 5 6 7 8 9 10 11 12 13 14 15 16 17 18 19 20 21 22 23 24 25 26 27 28 29 30 31 32 33 34 35 36 37 38 39 40 41 42 43 44 45 46 47 48 49 50
920
ASUS46 KPDT 290925
RWRPDT
PENDLETON REGIONAL WEATHER ROUNDUP
NATIONAL WEATHER SERVICE PENDLETON OREGON
200 AM PDT WED MAR 29 2017

NOTE: FAIR INDICATES FEW OR NO CLOUDS BELOW 12,000 FEET WITH NO
SIGNIFICANT WEATHER AND/OR OBSTRUCTIONS TO VISIBILITY.

# INDICATES UNOFFICIAL STATION AND DATA

WAZ520-291010-
EAST SLOPES OF WASHINGTON CASCADES

CITY            SKY/WX      TMP DP  RH  WIND    PRES   REMARKS
#CLE ELUM HS    N/A         38  37  96  CALM    30.03F
#CLE ELUM LAKE  N/A         N/A N/A N/A S16     30.09F
#GLENWOOD       N/A         41  40  96  CALM    30.12F
#MANASTASH CYN  N/A         36  32  85  CALM    30.03F
#NELSON 3SW     N/A         33  32  96  CALM    30.33F
#NILE           N/A         36  35  96  CALM    29.37F
#TEANAWAY 4NE   N/A         39  39  100 CALM    N/A
#TROUT LAKE 1NE N/A         38  37  96  CALM    30.15F
#TROUT LAKE 1E  N/A         35  34  96  CALM    30.13F
$$

WAZ521-291010-
SIMCOE HIGHLANDS

CITY            SKY/WX      TMP DP  RH  WIND    PRES   REMARKS
#BICKLETON HS   N/A         40  39  96  SW15    30.09F WCI 32
#CENTERVILLE 1SWN/A         42  37  82  CALM    30.09F
#GOLDENDALE 1NE N/A         43  33  67  CALM    N/A
#GOLDENDALE 4W  N/A         43  31  62  CALM    30.13F
#GOODNOE HILLS  N/A         46  38  73  W3      30.01F
#LYLE 6NE       N/A         43  41  93  CALM    30.10F
#PITT 4SE       N/A         39  38  96  CALM    30.16F
$$

WAZ026-291010-
KITTITAS VALLEY

CITY            SKY/WX      TMP DP  RH  WIND    PRES   REMARKS
ELLENSBURG AP   LGT RAIN    43  39  86  E3      30.09F
#ELLENSBURG CWU N/A         41  39  93  NE2     30.03F
#ELLENSBURG 3NE N/A         40  38  92  CALM    28.16F
#ELLENSBURG 13S N/A         42  39  89  CALM    N/A
#KITTITAS 4N    N/A         41  37  86  E1      30.08F
#KITTITAS 3S    N/A         41  39  93  CALM    30.09F
#THORP 6N       N/A         39  38  96  E5      30.13F
$$

WAZ027-291010-
YAKIMA VALLEY

CITY            SKY/WX      TMP DP  RH  WIND    PRES   REMARKS
SUNNYSIDE AP    RAIN        44  42  93  E3      30.13F
YAKIMA AIRPORT  LGT RAIN    49  41  74  VRB3    30.10F
YAKIMA-VAGABOND LGT RAIN    45  40  82  S12     30.07F WCI 39
#DONALD 2NE     N/A         59   3  10  S14     30.07S
#MABTON         N/A         47  44  89  CALM    30.12F
#MOXEE 2E       N/A         46   0  14  SE10    30.02F
#NACHES 2SW     N/A         44  40  86  CALM    30.10F
#TERRACE HTS    N/A         45  41  86  CALM    30.08F
#TOPPENISH      N/A         47  43  86  CALM    30.04F
#WEST VALLEY    N/A         45  41  86  CALM    30.08F
#W YAKIMA       N/A         44  41  89  CALM    30.09F
#WHITE SWAN 5E  N/A         46  42  86  CALM    30.11F
#WILEY CITY 3W  N/A         44  38  79  CALM    30.06F
$$

WAZ028-291010-
LOWER COLUMBIA BASIN...WASHINGTON

CITY            SKY/WX      TMP DP  RH  WIND    PRES   REMARKS
HANFORD         CLOUDY      49  38  66  W5      30.10F
PASCO           N/A         N/A N/A N/A MISG    30.16F
PROSSER AWOS    N/A         46  45  96  S5      30.16F
RICHLAND AWOS   RAIN        50  43  77  S7      30.14F
#BENTON CITY    N/A         46  42  86  CALM    30.05F
#CONNELL 5N     N/A         46  41  83  SW2     30.13F
#CONNELL 5NW    N/A         46  41  83  S7      30.08F
#ELTOPIA 6NW    N/A         47  41  79  CALM    29.10F
#KAHLOTUS       N/A         47  39  74  W14     30.14F WCI 41
#KENNEWICK 3S   N/A         48  40  74  S1      30.16F
#PATERSON       N/A         48  44  86  CALM    30.14F
#SAGEMOOR 2W    N/A         47  41  79  S5      30.02F
#TOUCHET 2S     N/A         49  44  83  CALM    30.13F
#WEST PASCO     N/A         50  40  68  CALM    30.15F
$$

WAZ029-291010-
FOOTHILLS OF THE BLUES...WASHINGTON

CITY            SKY/WX      TMP DP  RH  WIND    PRES   REMARKS
WALLA WALLA AP  LGT RAIN    51  42  71  S3      30.15F
#CLYDE 6NW      N/A         47  40  76  SW6     30.14F
#DAYTON SCHOOL  N/A         49  34  56  CALM    30.16F
#LOWDEN 2SE     N/A         48  44  86  CALM    30.11F
#PLEASANT VIEW 1N/A         44  40  86  S5      30.19F
#PRESCOTT       N/A         48  43  83  CALM    30.13F
#WHITMAN COLLEGEN/A         52  42  69  CALM    30.20F
#WAITSBURG 5S   N/A         47  40  76  SE5     30.25F
#WAITSBURG 8N   N/A         44  N/A N/A CALM    30.15F
#WALLA WALLA 5E N/A         48  43  83  NE3     N/A
#WHITMAN MISSIONN/A         49  44  83  CALM    30.16F
$$

WAZ030-291010-
BLUE MOUNTAINS...WASHINGTON

CITY            SKY/WX      TMP DP  RH  WIND    PRES   REMARKS
#DIXIE 5SE      N/A         44  38  79  S9      30.06F
$$

ORZ009-041-WAZ024-291010-
COLUMBIA RIVER GORGE

CITY            SKY/WX      TMP DP  RH  WIND    PRES   REMARKS
HOOD RIVER AP   LGT RAIN    45  45  100 CALM    30.14F
THE DALLES AP   LGT RAIN    48  46  93  N5      30.14F
#ARLINGTON AIRPON/A         46  41  83  CALM    30.14F
#CELILO DOT     N/A         48  42  80  S2      N/A
#LYLE           N/A         47  44  89  NW1     30.15F
#MOSIER 1S      N/A         45  36  70  CALM    30.12F
#MURDOCK        N/A         47  45  93  N3      30.10F
#RUFUS DOT      N/A         50  43  77  CALM    N/A
#SMITHVILLE     N/A         48  45  89  N3      30.09F

$$

ORZ510-291010-
NORTH CENTRAL OREGON

CITY            SKY/WX      TMP DP  RH  WIND    PRES   REMARKS
#ANTELOPE       N/A         42  38  86  CALM    30.02F
#CHENOWITH 1W   N/A         42  40  93  N5      N/A
#COW CYN RST AREN/A         41  40  96  S6      N/A
#DUFUR          N/A         43  41  93  E2      30.09F
#DUFUR 9E       N/A         41  37  86  SE3     30.17F
#GRASS VALLEY 1SN/A         41  39  93  S1      30.23F
#KENT DOT       N/A         40  34  79  N6      N/A
#MAUPIN SCHOOL  N/A         46  40  79  CALM    30.16F
#MORO SCHOOL    N/A         43  42  96  CALM    30.18F
#SHANIKO 5WSW   N/A         40  32  73  N14     N/A    WCI 32
#SHANIKO 4NW    N/A         39  36  89  S13     30.09F WCI 31
#TYGH VALLEY 2NEN/A         45  42  89  CALM    30.11F
#WAPANITIA AIRPON/A         42  40  93  CALM    30.14F
#WASCO DOT      N/A         45  41  86  CALM    N/A
#WASCO 5NE      N/A         43  39  86  CALM    30.12F
$$

ORZ511-291010-
CENTRAL OREGON

CITY            SKY/WX      TMP DP  RH  WIND    PRES   REMARKS
BEND AIRPORT    MOCLDY      46  34  63  S16     30.12F WCI 39
MADRAS AIRPORT  CLOUDY      43  39  86  E8      30.15F
PRINEVILLE AP   CLOUDY      46  36  68  SE10    30.13F
REDMOND AIRPORT CLOUDY      46  33  60  S10     30.12F
#ASHWOOD SCHOOL N/A         43  41  93  CALM    30.08F
#BEND 1SW       N/A         41  36  82  CALM    N/A
#BEND-AWBREY    N/A         44  36  73  SW12G24 30.12F WCI 38
#BEND-KIM LN    N/A         42  36  79  W1      30.06F
#CULVER         N/A         45  37  73  SE7     30.04F
#CULVER 8W      N/A         44  37  76  CALM    30.09F
#POWELL BUTTE   N/A         48  33  56  S16     30.05F WCI 42
#PRINEVILLE     N/A         41  36  82  E7      30.24F
#PRINEVILLE 3N  N/A         44  38  79  E7      30.14F
#WARM SPRINGS   N/A         48  41  77  CALM    30.07F

$$


ORZ509-291010-
EAST SLOPES OF OREGON CASCADES

CITY            SKY/WX      TMP DP  RH  WIND    PRES   REMARKS
SISTERS AWOS    N/A         43  37  79  CALM    30.07F
#BLUE BOX PASS  N/A         36  N/A N/A CALM    N/A
#CAMP SHERMAN   N/A         44  35  70  CALM    30.16F
#LA PINE DOT    N/A         41  30  65  E6      N/A
#LA PINE 4NW    N/A         40  33  76  CALM    30.23F
#LAVA BUTTE DOT N/A         40  32  73  S3      N/A
#SISTERS 3N     N/A         42  32  67  NE3     30.20F
#SUNRIVER       N/A         39  37  92  CALM    30.19F
#TUMALO 3W      N/A         45  35  68  SW10    29.99F
#WANOGA BUTTE D N/A         N/A N/A N/A W5      N/A

$$

ORZ044-291010-
LOWER COLUMBIA BASIN...OREGON

CITY            SKY/WX      TMP DP  RH  WIND    PRES   REMARKS
HERMISTON       LGT RAIN    49  45  86  NW3     30.14F
#BOARDMAN SCHOOLN/A         48  44  86  CALM    30.14F
#BOARDMAN 8SW   N/A         48  43  83  CALM    30.13F
#ECHO 8SW       N/A         47  45  93  CALM    30.14F
#I-84 EX 198 DOTN/A         49  40  71  N2      N/A
#IONE SCHOOL    N/A         46  29  51  CALM    30.16F
#UMATILLA       N/A         49  43  80  CALM    30.08F
$$

ORZ507-291010-
NORTHERN FOOTHILLS OF THE BLUES

CITY            SKY/WX      TMP DP  RH  WIND    PRES   REMARKS
PENDLETON AIRPT LGT RAIN    47  41  79  S3      30.14F
#ADAMS 3WNW     N/A         46  41  83  E1      30.16F
#ATHENA         N/A         46  41  83  CALM    30.18F
#CAYUSE         N/A         47  42  83  E3      30.15F
#HELIX SCHOOL   N/A         45  42  89  CALM    30.16F
#HELIX 3N       N/A         45  40  82  S7      30.10F
#HOLDMAN 5SE    N/A         46  41  83  CALM    30.12F
#HOLDMAN 6E     N/A         45  41  86  CALM    29.96F
#M-F FERNDALE   N/A         50  43  77  CALM    30.11F
#M-F GROVE ELEM N/A         49  41  74  CALM    30.12F
#M-FREEWATER 5SEN/A         47  42  83  CALM    30.14F
#PENDLETON DNTN N/A         47  38  71  CALM    30.13F
#PDT AQUATIC CTRN/A         47  39  74  CALM    30.14F
#PDT SUNRIDGE   N/A         46  42  86  CALM    30.16F
#PENDLETON 7NW  N/A         47  40  76  CALM    27.01R
#PILOT ROCK 1S  N/A         46  39  76  SE1     30.13F
#PILOT ROCK     N/A         46  40  79  SW1     30.14F
#TUTUILLA       N/A         47  42  83  CALM    30.16F
#UMAPINE 2E     N/A         49  44  83  SE2     30.11F
#WESTON SCHOOL  N/A         47  38  71  SW5     30.16F

$$

ORZ508-291010-
SOUTHERN FOOTHILLS OF THE BLUES

CITY            SKY/WX      TMP DP  RH  WIND    PRES   REMARKS
LEXINGTON       MOCLDY      46  43  89  CALM    30.15F
#AJAX           N/A         43  32  65  E2      30.25F
#CONDON SCHOOL  N/A         42  38  86  SW1     30.06F
#CONDON 5W      N/A         40  35  82  SW6     30.08F
#HEPPNER EOC    N/A         45  40  82  CALM    30.07F
#LEXINGTON 2SE  N/A         47  41  79  CALM    30.09F
#MIKKALO        N/A         45  38  76  SE2     30.21F
#OLEX 4N        N/A         46  42  86  CALM    30.11F
#RUGGS 5NE      N/A         43  39  86  S3      30.27F
#RUGGS 2SW      N/A         44  38  79  W3      30.16F

$$

ORZ502-503-291010-
BLUE MOUNTAINS

CITY            SKY/WX      TMP DP  RH  WIND    PRES   REMARKS
MEACHAM         LGT RAIN    38  34  85  CALM    30.14F FOG
#BATTLE MTN DOT N/A         38  35  89  S7      N/A
#GREENHORN 9SW  N/A         35  34  96  CALM    26.36F
#HARDMAN 10S    N/A         39  36  89  S6      30.28F
#HEPPNER 15SE   N/A         40  36  85  S1      30.11F
#LADD CYN SMT   N/A         42  34  73  E5      N/A
#LADD CREEK ODOTN/A         41  21  44  S3      N/A
#LONG CREEK HS  N/A         47  38  71  CALM    N/A
#N POWDER DOT   N/A         40  37  89  CALM    N/A
#PIKES PEAK     N/A         43  36  76  W17G25  27.99S WCI 35
#TOLLGATE       N/A         35  34  96  SW5     29.97F
#TROY SCHOOL    N/A         43  38  82  CALM    30.06F
#UKIAH          N/A         38  36  92  CALM    30.09F
#WESTON 4E      N/A         41  38  89  SE5     30.15F
$$

ORZ505-291010-
JOHN DAY BASIN

CITY            SKY/WX      TMP DP  RH  WIND    PRES   REMARKS
JOHN DAY        CLOUDY      44  35  70  CALM    30.17F
#JOHN DAY KJDY  N/A         41  N/A N/A E1      29.44F
#ANTELOPE 9ESE  N/A         47  42  83  CALM    N/A
#DAYVILLE SCHOOLN/A         46  36  68  E2      30.11F
#MITCHELL       N/A         44  40  86  CALM    30.27F
#MITCHELL 8NW   N/A         41  35  79  SW6     30.06F
#MONUMENT HS    N/A         45  39  79  CALM    30.10F
#MT. VERNON 5SE N/A         43  34  70  SE1     30.12F
#SPRAY SCHOOL   N/A         46  N/A N/A CALM    N/A
#WINLOCK        N/A         42  39  89  CALM    30.09F
$$

ORZ506-291010-
OCHOCO AND JOHN DAY HIGHLANDS

CITY            SKY/WX      TMP DP  RH  WIND    PRES   REMARKS
#HORSE RIDGE DO N/A         45  31  58  S7      N/A
#PAULINA SCHOOL N/A         42  39  89  CALM    N/A
#PINE MTN OBS   N/A         34  31  89  S20G31  N/A    WCI 23
#PRAIRIE CITY   N/A         38  34  85  CALM    30.34F
#SENECA 9NW     N/A         33  31  92  CALM    30.24F
$$

ORZ049-291010-
GRANDE RONDE VALLEY

CITY            SKY/WX      TMP DP  RH  WIND    PRES   REMARKS
LA GRANDE       CLOUDY      48  34  58  S13     30.16F WCI 43
#COVE           N/A         42  40  93  CALM    30.18F
#COVE SCHOOL    N/A         42  38  86  CALM    30.17F
#COVE 6NW       N/A         42  39  89  W2      30.21F
#ELGIN 3N       N/A         39  34  82  CALM    30.14F
#ELGIN 1E       N/A         41  37  86  CALM    N/A
#IMBLER SCHOOL  N/A         39  37  92  CALM    30.12F
#ISLAND CITY 4N N/A         45  43  93  CALM    30.12F
#LADD CYN DOT   N/A         46  36  68  S8      N/A
#UNION 1S       N/A         46  36  68  SE9     30.20F
$$

ORZ050-291010-
WALLOWA COUNTY

CITY            SKY/WX      TMP DP  RH  WIND    PRES   REMARKS
JOSEPH AIRPORT  CLOUDY      37  34  89  CALM    30.15F FOG
#IMNAHA SCHOOL  N/A         43  40  89  CALM    30.17F
#IMNAHA 10S     N/A         40  36  85  CALM    30.14F
#JOSEPH 3N      N/A         36  30  79  CALM    30.15F
#JOSEPH 3W      N/A         37  34  89  CALM    29.96F
#LOSTINE        N/A         38  36  92  CALM    30.00F
#LOSTINE 3SE    N/A         39  36  89  N2      30.20F
#MT HOWARD 8000 N/A         29  26  88  S7      30.11F
#PROMISE 1S     N/A         37  34  89  CALM    30.28F
#WALLOWA SCHOOL N/A         39  37  92  CALM    30.12F



$$



USA.gov is the U.S. government's official web portal to all federal, state and local government web resources and services.